Date,TemperatureHighF,TemperatureAvgF,TemperatureLowF,DewpointHighF,DewpointAvgF,DewpointLowF,HumidityHigh,HumidityAvg,HumidityLow,PressureMaxIn,PressureMinIn,WindSpeedMaxMPH,WindSpeedAvgMPH,GustSpeedMaxMPH,PrecipitationSumIn
2013-8-1,89,74,67,71,66,60,98,79,40,30.04,29.86,4,0,8,0.09
2013-8-2,92,76,62,72,60,45,99,65,22,30.01,29.91,4,1,10,0.01
2013-8-3,77,69,64,67,63,60,95,82,65,30.03,29.98,2,0,4,0.15
2013-8-4,85,71,60,66,56,42,99,67,23,30.10,29.99,7,1,16,0.08
2013-8-5,87,68,54,59,53,42,93,63,24,30.17,30.03,4,0,7,0.00
2013-8-6,85,72,64,66,62,58,91,71,43,30.09,30.02,4,0,10,0.04
2013-8-7,89,76,66,71,68,64,95,78,47,30.09,30.00,4,1,11,0.05
2013-8-8,87,77,70,75,71,69,99,84,59,30.05,29.99,4,0,8,0.04
2013-8-9,93,81,73,73,70,66,95,73,44,30.02,29.92,6,1,10,0.00
2013-8-10,91,77,68,72,65,53,96,70,30,30.12,30.00,4,0,8,0.00
2013-8-11,90,77,68,70,66,60,93,71,40,30.14,30.03,4,0,8,0.00
2013-8-12,96,79,68,73,65,57,98,67,29,30.06,29.94,6,1,10,0.00
2013-8-13,92,76,68,70,66,60,94,76,35,29.94,29.78,5,1,11,0.39
2013-8-14,79,66,55,59,48,41,81,53,28,30.16,29.89,7,1,14,0.00
2013-8-15,85,65,49,58,46,32,94,61,16,30.24,30.13,4,0,8,0.00
2013-8-16,87,66,50,59,51,42,94,64,24,30.23,30.15,4,0,8,0.00
2013-8-17,86,67,51,59,54,48,93,67,29,30.31,30.23,5,0,9,0.00
2013-8-18,73,66,63,63,60,58,93,82,61,30.30,30.22,3,0,7,0.13
2013-8-19,84,70,61,67,63,58,97,81,53,30.22,30.08,4,0,7,0.00
2013-8-20,92,75,64,71,65,59,99,75,34,30.22,30.14,4,0,6,0.00
2013-8-21,95,76,65,71,67,63,97,77,35,30.25,30.10,4,0,10,0.09
2013-8-22,92,78,67,70,64,58,96,68,34,30.14,29.99,4,1,10,0.02
2013-8-23,79,69,60,69,64,58,96,84,57,30.18,29.99,3,0,7,1.07
2013-8-24,88,69,58,66,57,46,99,72,25,30.38,30.18,4,0,6,0.00
2013-8-25,89,69,54,63,57,50,96,69,29,30.45,30.29,4,0,8,0.00
2013-8-26,93,75,61,62,58,51,87,61,26,30.32,30.06,4,1,8,0.00
2013-8-27,90,78,67,69,64,61,81,65,43,30.06,29.94,7,1,14,0.00
2013-8-28,78,75,72,73,71,66,97,88,79,29.98,29.84,3,0,5,0.19
2013-8-29,92,77,68,73,69,62,99,78,38,30.06,29.88,4,0,7,0.00
2013-8-30,95,77,64,73,66,61,99,74,34,30.07,29.91,4,0,9,0.00
2013-8-31,94,80,72,70,67,62,82,65,36,29.93,29.83,4,0,8,0.00